Regional Weather Roundup
Issued by NWS

Home | Current Version | Previous Version | Graphics & Text | Print | Product List | Glossary On
Versions: 1 2 3 4 5 6 7 8 9 10 11 12 13 14 15 16 17 18 19 20 21 22 23 24 25 26 27 28 29 30 31 32 33 34 35 36 37 38 39 40 41 42 43 44 45 46 47 48 49 50
000
ASUS43 KBIS 291410
RWRND

NORTH DAKOTA REGIONAL WEATHER ROUNDUP
NATIONAL WEATHER SERVICE BISMARCK ND
900 AM CDT SUN MAR 29 2015

NOTE: "FAIR" INDICATES FEW OR NO CLOUDS BELOW 12,000 FEET WITH NO
SIGNIFICANT WEATHER AND/OR OBSTRUCTIONS TO VISIBILITY.


NDZ001>003-009>011-017-291500-
NORTHWEST NORTH DAKOTA

CITY           SKY/WX    TMP DP  RH WIND       PRES   REMARKS
WILLISTON      MOSUNNY   38  34  85 W16       30.06S
MINOT          SUNNY     40  30  67 W21G29    29.96R
MINOT AFB      SUNNY     39  36  89 NW18      29.95R
$$

NDZ018>021-031>035-040>046-291500-
SOUTHWEST NORTH DAKOTA

CITY           SKY/WX    TMP DP  RH WIND       PRES   REMARKS
BISMARCK       SUNNY     40  33  76 NW20G29   30.00R
DICKINSON      SUNNY     37  33  85 W20       30.07R
GARRISON         N/A     38  33  82 NW20      30.00R
HETTINGER ARPT SUNNY     37  33  85 NW15      30.10R
$$

NDZ004>008-012>016-024-026-027-054-291500-
NORTHEAST NORTH DAKOTA

CITY           SKY/WX    TMP DP  RH WIND       PRES   REMARKS
GRAND FORKS    CLOUDY    39  33  79 NW24G36   29.73R
GRND FRKS AFB  PTSUNNY   38  33  80 N20G26    29.74R
DEVILS LAKE    SUNNY     37  32  81 NW21      29.83R
$$

NDZ022-023-025-028>030-036>039-047>053-291500-
SOUTHEAST NORTH DAKOTA

CITY           SKY/WX    TMP DP  RH WIND       PRES   REMARKS
FARGO          LGT RAIN  40  34  79 NW25G38   29.71R
JAMESTOWN      MOSUNNY   39  35  86 NW28G37   29.84R
$$



USA.gov is the U.S. government's official web portal to all federal, state and local government web resources and services.